Weather History for Valparaiso, FL

Change the Weather History Date:

Sunday, December 2, 2012

  Actual Average Record
Temperature  
Mean Temperature 62 °F -  
Max Temperature 72 °F 66 °F 81 °F (1985)
Min Temperature 52 °F 42 °F 27 °F (1956)
Degree Days  
Heating Degree Days 3    
Growing Degree Days 12 (Base 50)    
Moisture  
Dew Point 57 °F    
Average Humidity 89    
Maximum Humidity 100    
Minimum Humidity 66    
Precipitation  
Precipitation 0.00 in - - ()
Sea Level Pressure  
Sea Level Pressure 30.29 in    
Wind  
Wind Speed 4 mph (ENE)    
Max Wind Speed 8 mph    
Max Gust Speed -    
Visibility 7 miles    
Events Fog    
Averages and records for this station are not official NWS values.
T = Trace of Precipitation, MM = Missing Value Source: NWS Daily Summary

Daily Weather History Graph

Daily Weather History Graph

Search for Another Location

Airport:

Trip Planner

Search our weather history database for the weather conditions in past years. The results will help you decide how hot, cold, wet, or windy it might be!

Date:

Astronomy

Dec. 02, 2012 Rise Set
Actual Time 6:26 AM CST 4:44 PM CST
Civil Twilight 6:00 AM CST 5:11 PM CST
Nautical Twilight 5:30 AM CST 5:40 PM CST
Astronomical Twilight 5:01 AM CST 6:09 PM CST
Moon 8:24 PM CST (12/2) 9:21 AM CST (12/2)
Length of Visible Light 11h 10m
Length of Day
10h 18m
Waning Gibbous, 85% of the Moon is Illuminated
Dec 2
Waning Gibbous
Dec 6
Last Quarter
Dec 13
New
Dec 19
First Quarter
Dec 28
Full

Hourly Weather History & Observations

Time (CST) Temp. Dew Point Humidity Pressure Visibility Wind Dir Wind Speed Gust Speed Precip Events Conditions
12:55 AM 52.9 °F 51.3 °F 94% 30.27 in 10.0 mi Calm Calm - N/A   Clear
1:55 AM 56.1 °F 54.1 °F 93% 30.27 in 10.0 mi Calm Calm - N/A   Clear
2:55 AM 53.6 °F 51.6 °F 93% 30.26 in 10.0 mi ENE 3.5 mph - N/A   Partly Cloudy
3:55 AM 53.4 °F 52.0 °F 95% 30.27 in 10.0 mi NNE 3.5 mph - N/A   Partly Cloudy
4:42 AM 53.6 °F 51.8 °F 94% 30.27 in 10.0 mi NE 3.5 mph - N/A   Scattered Clouds
4:55 AM 54.0 °F 52.7 °F 95% 30.28 in 10.0 mi ENE 2.3 mph - N/A   Mostly Cloudy
5:06 AM 55.4 °F 53.6 °F 94% 30.28 in 10.0 mi ENE 3.5 mph - N/A   Mostly Cloudy
5:55 AM 55.8 °F 53.8 °F 93% 30.29 in 10.0 mi ENE 6.9 mph - N/A   Scattered Clouds
6:16 AM 55.4 °F 53.6 °F 94% 30.28 in 10.0 mi ENE 6.9 mph - N/A   Mostly Cloudy
6:37 AM 55.4 °F 53.6 °F 94% 30.28 in 6.0 mi ENE 6.9 mph - N/A   Mostly Cloudy
6:55 AM 57.0 °F 55.4 °F 94% 30.31 in 7.0 mi ENE 6.9 mph - N/A   Mostly Cloudy
7:39 AM 59.0 °F 57.2 °F 94% 30.32 in 7.0 mi ENE 6.9 mph - N/A   Mostly Cloudy
7:55 AM 58.6 °F 56.8 °F 94% 30.34 in 7.0 mi ENE 6.9 mph - N/A   Mostly Cloudy
8:07 AM 59.0 °F 57.2 °F 94% 30.33 in 5.0 mi ENE 5.8 mph - N/A   Mostly Cloudy
8:10 AM 59.0 °F 57.2 °F 94% 30.33 in 2.0 mi ENE 5.8 mph - N/A   Overcast
8:39 AM 59.0 °F 57.2 °F 94% 30.33 in 1.2 mi NE 4.6 mph - N/A   Overcast
8:49 AM 59.0 °F 59.0 °F 100% 30.33 in 0.5 mi NE 4.6 mph - N/A Fog Fog
8:55 AM 59.7 °F 58.5 °F 96% 30.34 in 0.5 mi NNE 4.6 mph - N/A Fog Fog
9:35 AM 60.8 °F 59.0 °F 94% 30.34 in 0.8 mi ENE 4.6 mph - N/A   Overcast
9:55 AM 61.7 °F 59.9 °F 94% 30.35 in 0.5 mi ENE 4.6 mph - N/A Fog Fog
10:10 AM 62.6 °F 60.8 °F 94% 30.33 in 3.0 mi ENE 4.6 mph - N/A   Mostly Cloudy
10:24 AM 64.4 °F 60.8 °F 88% 30.33 in 7.0 mi ENE 4.6 mph - N/A   Mostly Cloudy
10:30 AM 64.4 °F 60.8 °F 88% 30.33 in 7.0 mi East 4.6 mph - N/A   Mostly Cloudy
10:55 AM 65.3 °F 60.1 °F 83% 30.34 in 10.0 mi Calm Calm - N/A   Partly Cloudy
11:52 AM 71.6 °F 60.6 °F 68% 30.31 in 10.0 mi ESE 8.1 mph - N/A   Scattered Clouds
11:55 AM 71.6 °F 60.6 °F 68% 30.31 in 10.0 mi ESE 8.1 mph - N/A   Scattered Clouds
12:55 PM 71.6 °F 59.9 °F 66% 30.27 in 10.0 mi SE 8.1 mph - N/A   Scattered Clouds
1:55 PM 72.0 °F 61.3 °F 69% 30.26 in 10.0 mi ESE 6.9 mph - N/A   Scattered Clouds
2:55 PM 72.1 °F 61.9 °F 70% 30.26 in 10.0 mi SSE 6.9 mph - N/A   Scattered Clouds
3:55 PM 69.8 °F 61.5 °F 75% 30.24 in 10.0 mi SSE 4.6 mph - N/A   Scattered Clouds
4:55 PM 67.1 °F 61.9 °F 83% 30.26 in 10.0 mi SSW 2.3 mph - N/A   Partly Cloudy
5:55 PM 63.9 °F 61.2 °F 91% 30.26 in 10.0 mi Calm Calm - N/A   Clear
6:55 PM 59.7 °F 57.0 °F 91% 30.27 in 10.0 mi NNE 1.2 mph - N/A   Clear
7:55 PM 58.5 °F 56.5 °F 93% 30.27 in 10.0 mi North 2.3 mph - N/A   Clear
8:55 PM 57.2 °F 55.6 °F 94% 30.28 in 10.0 mi North 2.3 mph - N/A   Clear
9:55 PM 55.4 °F 53.6 °F 94% 30.27 in 6.0 mi NNW 1.2 mph - N/A   Mist
10:55 PM 55.4 °F 53.6 °F 94% 30.26 in 6.0 mi NNE 3.5 mph - N/A   Mist
11:41 PM 53.6 °F 51.8 °F 94% 30.25 in 3.0 mi NNE 3.5 mph - N/A   Mist
11:55 PM 53.8 °F 51.8 °F 93% 30.25 in 1.0 mi Calm Calm - N/A   Mist